Regional Weather Roundup
Issued by NWS

Home | Current Version | Previous Version | Text Only | Print | Product List | Glossary Off
Versions: 1 2 3 4 5 6 7 8 9 10 11 12 13 14 15 16 17 18 19 20 21 22 23 24 25 26 27

000
ASUS45 KCYS 161510
RWRWY

WYOMING REGIONAL WEATHER ROUNDUP
NATIONAL WEATHER SERVICE CHEYENNE WY
900 AM MDT WED AUG 16 2017

NOTE:  "FAIR" INDICATES FEW OR NO CLOUDS BELOW 12,000 FEET
WITH NO SIGNIFICANT WEATHER AND/OR OBSTRUCTIONS TO VISIBILITY.

WYZ001-161600-
YELLOWSTONE NATIONAL PARK

CITY           SKY/WX    TMP DP  RH WIND       PRES   REMARKS
LK YELLOWSTONE   N/A     50  44  80 E3        30.29R
W YELLOWSTONE  NOT AVBL

$$
WYZ002>013-054>058-071-098>099-161600-
NORTHERN WYOMING

CITY           SKY/WX    TMP DP  RH WIND       PRES   REMARKS
JACKSON        FAIR      50  38  63 CALM      30.24R
CODY           FAIR      64  42  44 SW12G20   30.10S
GREYBULL       FAIR      63  49  60 CALM      30.06S
WORLAND        FAIR      59  53  80 W5        30.07S
SHERIDAN       FAIR      63  44  50 CALM      30.03S
BUFFALO        FAIR      68  42  38 E3        30.08S
GILLETTE       FAIR      68  45  43 W7        30.06S
HULETT         FAIR      63  50  63 CALM      30.08S
NEWCASTLE      FAIR      64  46  52 NW13G20   30.06S

$$
WYZ014>020-022>026-101>103-161600-
CENTRAL WYOMING

CITY           SKY/WX    TMP DP  RH WIND       PRES   REMARKS
BIG PINEY      FAIR      48  43  82 W5        30.26R
PINEDALE       FAIR      50  41  71 NW3       30.27R
DUBOIS         FAIR      48  36  61 NW9       30.23F
LANDER           N/A    N/A N/A N/A MISG      30.15S
RIVERTON       FAIR      58  49  72 CALM      30.15S
CASPER         FAIR      58  50  75 SW13      30.14R
DOUGLAS        FAIR      59  52  77 NW10      30.12S

$$
WYZ021-027>030-104>119-161600-
SOUTHERN WYOMING

CITY           SKY/WX    TMP DP  RH WIND       PRES   REMARKS
EVANSTON       FAIR      55  32  41 CALM      30.25R
KEMMERER         N/A     52  41  66 N5        30.26R
FORT BRIDGER   FAIR      56  41  56 CALM      30.28R
ROCK SPRINGS   FAIR      56  47  71 CALM      30.23R
RAWLINS        FAIR      56  46  69 SW7       30.22S
SARATOGA       FAIR      54  45  71 SE7       30.25S
LARAMIE        FAIR      54  45  71 E3        30.21S
CHEYENNE       FAIR      59  43  55 NW14      30.15R
TORRINGTON     FAIR      63  53  70 NW10      30.04S
PINE BLUFFS    FAIR      59  46  63 NW17G24   30.11R

$$




USA.gov is the U.S. government's official web portal to all federal, state and local government web resources and services.